Location: Unspecified
(35.6961°N, 0.0000°E)
Time: 08:39:23
(UTC+00:00)

S-56A Canister/Altair - Pass Details

Date: 04 June 2019
Orbit: 633 x 2499 km, 38.9° (Epoch: 25 June)

Event Time Altitude Azimuth Distance (km) Brightness Sun altitude
Rises 04:00:30 0° 283° (WNW) 3,638 10.6 -8.4°
Reaches altitude 10° 04:02:58 10° 274° (W) 2,891 10.0 -8.0°
Maximum altitude 04:09:24 36° 210° (SSW) 2,042 9.2 -7.0°
Drops below altitude 10° 04:18:37 10° 150° (SSE) 4,167 11.3 -5.4°
Sets 04:22:58 0° 143° (SE) 5,458 12.0 -4.6°
